Change the Weather History Date:

Thursday, January 30, 2014

  Actual Average (KLAW) Record (KLAW)
Temperature  
Mean Temperature 47 °F -  
Max Temperature 62 °F 54 °F 75 °F (1962)
Min Temperature 32 °F 28 °F 3 °F (1966)
Degree Days  
Heating Degree Days 18    
Moisture  
Dew Point 26 °F    
Average Humidity 51    
Maximum Humidity 87    
Minimum Humidity 27    
Precipitation  
Precipitation 0.00 in - - ()
Sea Level Pressure  
Sea Level Pressure 29.82 in    
Wind  
Wind Speed 13 mph (SSE)    
Max Wind Speed 23 mph    
Max Gust Speed 31 mph    
Visibility 10 miles    
Events      
Averages and records for this station are not official NWS values.
T = Trace of Precipitation, MM = Missing Value Source: NWS Daily Summary

Daily Weather History Graph

Daily Weather History Graph

Search for Another Location

Airport or City:

Trip Planner

Search our weather history database for the weather conditions in past years. The results will help you decide how hot, cold, wet, or windy it might be!

Date:

Astronomy

Jan. 30, 2014 Rise Set
Actual Time 7:31 AM CST 5:59 PM CST
Civil Twilight 7:04 AM CST 6:26 PM CST
Nautical Twilight 6:34 AM CST 6:56 PM CST
Astronomical Twilight 6:04 AM CST 7:26 PM CST
Moon 6:59 AM CST (1/30) 6:10 PM CST (1/30)
Length of Visible Light 11h 21m
Length of Day
10h 28m
Waning Crescent, 0% of the Moon is Illuminated
Jan 30
Waning Crescent
Jan 30
New
Feb 6
First Quarter
Feb 14
Full
Feb 22
Last Quarter

Hourly Weather History & Observations

Time (CST) Temp. Windchill Dew Point Humidity Pressure Visibility Wind Dir Wind Speed Gust Speed Precip Events Conditions
12:15 AM 32.0 °F 21.6 °F 15.8 °F 51% 30.02 in 10.0 mi South 15.0 mph 18.4 mph N/A   Clear
12:35 AM 32.0 °F 22.1 °F 17.6 °F 55% 30.02 in 10.0 mi South 13.8 mph - N/A   Clear
12:55 AM 32.0 °F 22.5 °F 17.6 °F 55% 30.01 in 10.0 mi South 12.7 mph - N/A   Clear
1:15 AM 32.0 °F 22.5 °F 17.6 °F 55% 29.99 in 10.0 mi South 12.7 mph - N/A   Clear
1:35 AM 32.0 °F 22.5 °F 17.6 °F 55% 29.99 in 10.0 mi South 12.7 mph 18.4 mph N/A   Clear
1:55 AM 32.0 °F 21.2 °F 17.6 °F 55% 29.97 in 10.0 mi South 16.1 mph 19.6 mph N/A   Clear
2:15 AM 32.0 °F 21.6 °F 17.6 °F 55% 29.97 in 10.0 mi South 15.0 mph - N/A   Clear
2:35 AM 32.0 °F 21.6 °F 17.6 °F 55% 29.95 in 10.0 mi South 15.0 mph - N/A   Clear
2:55 AM 32.0 °F 20.8 °F 17.6 °F 55% 29.93 in 10.0 mi South 17.3 mph - N/A   Clear
3:15 AM 32.0 °F 21.2 °F 17.6 °F 55% 29.92 in 10.0 mi South 16.1 mph - N/A   Clear
3:35 AM 32.0 °F 21.6 °F 17.6 °F 55% 29.92 in 10.0 mi South 15.0 mph - N/A   Clear
3:55 AM 32.0 °F 22.1 °F 17.6 °F 55% 29.91 in 10.0 mi South 13.8 mph - N/A   Clear
4:15 AM 32.0 °F 23.0 °F 17.6 °F 55% 29.91 in 10.0 mi South 11.5 mph - N/A   Clear
4:35 AM 32.0 °F 22.5 °F 17.6 °F 55% 29.90 in 10.0 mi South 12.7 mph - N/A   Clear
4:55 AM 32.0 °F 22.5 °F 17.6 °F 55% 29.88 in 10.0 mi South 12.7 mph 17.3 mph N/A   Clear
5:15 AM 32.0 °F 21.6 °F 17.6 °F 55% 29.86 in 10.0 mi SSE 15.0 mph - N/A   Clear
5:35 AM 32.0 °F 22.5 °F 17.6 °F 55% 29.87 in 10.0 mi South 12.7 mph 19.6 mph N/A   Clear
5:55 AM 32.0 °F 22.1 °F 17.6 °F 55% 29.87 in 10.0 mi SSE 13.8 mph 19.6 mph N/A   Clear
6:15 AM 32.0 °F 22.1 °F 17.6 °F 55% 29.85 in 10.0 mi SSE 13.8 mph - N/A   Clear
6:35 AM 32.0 °F 21.6 °F 17.6 °F 55% 29.85 in 10.0 mi South 15.0 mph - N/A   Clear
6:55 AM 32.0 °F 22.1 °F 17.6 °F 55% 29.85 in 10.0 mi South 13.8 mph - N/A   Clear
7:15 AM 32.0 °F 21.6 °F 17.6 °F 55% 29.84 in 10.0 mi South 15.0 mph - N/A   Clear
7:35 AM 32.0 °F 21.6 °F 19.4 °F 60% 29.84 in 10.0 mi South 15.0 mph - N/A   Clear
7:55 AM 32.0 °F 22.1 °F 19.4 °F 60% 29.84 in 10.0 mi South 13.8 mph 19.6 mph N/A   Clear
8:15 AM 32.0 °F 21.6 °F 19.4 °F 60% 29.83 in 10.0 mi South 15.0 mph - N/A   Clear
8:35 AM 32.0 °F 22.1 °F 19.4 °F 60% 29.83 in 10.0 mi South 13.8 mph - N/A   Clear
8:55 AM 33.8 °F 22.8 °F 19.4 °F 56% 29.83 in 10.0 mi South 18.4 mph - N/A   Clear
9:15 AM 35.6 °F 25.2 °F 21.2 °F 56% 29.82 in 10.0 mi South 18.4 mph - N/A   Clear
9:35 AM 37.4 °F 27.2 °F 21.2 °F 52% 29.82 in 10.0 mi South 19.6 mph - N/A   Clear
9:55 AM 37.4 °F 26.6 °F 21.2 °F 52% 29.82 in 10.0 mi South 21.9 mph 27.6 mph N/A   Clear
10:15 AM 41.0 °F 31.9 °F 21.2 °F 45% 29.82 in 10.0 mi South 19.6 mph 28.8 mph N/A   Clear
10:35 AM 42.8 °F 33.5 °F 21.2 °F 42% 29.81 in 10.0 mi South 23.0 mph 31.1 mph N/A   Clear
10:55 AM 42.8 °F 34.3 °F 21.2 °F 42% 29.81 in 10.0 mi South 19.6 mph 26.5 mph N/A   Clear
11:15 AM 44.6 °F 36.4 °F 21.2 °F 39% 29.80 in 10.0 mi SSW 20.7 mph 29.9 mph N/A   Clear
11:35 AM 46.4 °F 40.1 °F 23.0 °F 40% 29.80 in 10.0 mi South 15.0 mph 25.3 mph N/A   Clear
11:55 AM 50.0 °F - 23.0 °F 35% 29.78 in 10.0 mi SSW 17.3 mph 21.9 mph N/A   Clear
12:15 PM 51.8 °F - 24.8 °F 35% 29.79 in 10.0 mi SSW 18.4 mph 23.0 mph N/A   Clear
12:35 PM 53.6 °F - 24.8 °F 33% 29.79 in 10.0 mi SW 13.8 mph 25.3 mph N/A   Clear
12:55 PM 53.6 °F - 24.8 °F 33% 29.76 in 10.0 mi SSW 20.7 mph 26.5 mph N/A   Clear
1:15 PM 55.4 °F - 26.6 °F 33% 29.75 in 10.0 mi SSW 16.1 mph 21.9 mph N/A   Clear
1:35 PM 55.4 °F - 26.6 °F 33% 29.74 in 10.0 mi South 16.1 mph - N/A   Clear
1:55 PM 59.0 °F - 26.6 °F 29% 29.74 in 10.0 mi SSW 16.1 mph 23.0 mph N/A   Clear
2:15 PM 60.8 °F - 28.4 °F 29% 29.75 in 10.0 mi South 13.8 mph 18.4 mph N/A   Clear
2:35 PM 60.8 °F - 28.4 °F 29% 29.74 in 10.0 mi SSW 11.5 mph - N/A   Clear
2:55 PM 60.8 °F - 28.4 °F 29% 29.74 in 10.0 mi SSW 11.5 mph 18.4 mph N/A   Clear
3:15 PM 62.6 °F - 28.4 °F 27% 29.75 in 10.0 mi SW 10.4 mph - N/A   Clear
3:35 PM 60.8 °F - 28.4 °F 29% 29.74 in 10.0 mi South 10.4 mph - N/A   Clear
3:55 PM 60.8 °F - 30.2 °F 31% 29.74 in 10.0 mi South 10.4 mph - N/A   Clear
4:15 PM 60.8 °F - 30.2 °F 31% 29.73 in 10.0 mi South 9.2 mph - N/A   Clear
4:35 PM 60.8 °F - 30.2 °F 31% 29.73 in 10.0 mi South 11.5 mph - N/A   Clear
4:55 PM 60.8 °F - 30.2 °F 31% 29.73 in 10.0 mi SSE 9.2 mph - N/A   Clear
5:15 PM 59.0 °F - 32.0 °F 36% 29.74 in 10.0 mi Calm Calm - N/A   Clear
5:35 PM 57.2 °F - 32.0 °F 38% 29.74 in 10.0 mi Calm Calm - N/A   Clear
5:55 PM 55.4 °F - 32.0 °F 41% 29.75 in 10.0 mi East 5.8 mph - N/A   Clear
6:15 PM 53.6 °F - 33.8 °F 47% 29.75 in 10.0 mi Calm Calm - N/A   Clear
6:35 PM 53.6 °F - 33.8 °F 47% 29.76 in 10.0 mi Calm Calm - N/A   Clear
6:55 PM 51.8 °F - 33.8 °F 50% 29.76 in 10.0 mi Calm Calm - N/A   Clear
7:15 PM 51.8 °F - 33.8 °F 50% 29.76 in 10.0 mi Calm Calm - N/A   Clear
7:35 PM 51.8 °F - 35.6 °F 54% 29.76 in 10.0 mi East 9.2 mph - N/A   Clear
7:55 PM 50.0 °F - 35.6 °F 58% 29.77 in 10.0 mi East 9.2 mph - N/A   Clear
8:15 PM 50.0 °F - 35.6 °F 58% 29.77 in 10.0 mi East 6.9 mph - N/A   Clear
8:35 PM 48.2 °F - 37.4 °F 66% 29.77 in 10.0 mi ESE 8.1 mph - N/A   Clear
8:55 PM 50.0 °F - 37.4 °F 62% 29.77 in 10.0 mi ESE 10.4 mph - N/A   Clear
9:15 PM 50.0 °F - 39.2 °F 66% 29.77 in 10.0 mi ESE 10.4 mph - N/A   Clear
9:35 PM 48.2 °F - 41.0 °F 76% 29.77 in 10.0 mi ESE 10.4 mph - N/A   Clear
9:55 PM 48.2 °F - 41.0 °F 76% 29.76 in 10.0 mi Calm Calm - N/A   Clear
10:15 PM 50.0 °F - 41.0 °F 71% 29.76 in 10.0 mi SE 10.4 mph - N/A   Clear
10:35 PM 48.2 °F - 41.0 °F 76% 29.76 in 10.0 mi SE 6.9 mph - N/A   Clear
10:55 PM 48.2 °F - 42.8 °F 82% 29.76 in 10.0 mi SE 9.2 mph - N/A   Clear
11:15 PM 48.2 °F - 42.8 °F 82% 29.76 in 10.0 mi Calm Calm - N/A   Clear
11:35 PM 48.2 °F - 42.8 °F 82% 29.75 in 10.0 mi ESE 9.2 mph - N/A   Clear
11:55 PM 46.4 °F 43.5 °F 42.8 °F 87% 29.75 in 10.0 mi SE 5.8 mph - N/A   Clear